Location: Possagno
(45.8500°N, 11.8667°E)
Time: 17:04:20
(UTC+00:00)

Envisat - Pass Details

Date: 09 August 2021
Orbit: 764 x 766 km, 98.2° (Epoch: 17 September)

Event Time Altitude Azimuth Distance (km) Brightness Sun altitude
Rises 03:06:18 0° 31° (NNE) 3,242 7.6 -9.7°
Reaches altitude 10° 03:09:49 10° 57° (ENE) 2,309 7.2 -9.2°
Maximum altitude 03:12:25 14° 88° (E) 2,040 6.2 -8.9°
Drops below altitude 10° 03:15:00 10° 119° (ESE) 2,299 5.9 -8.5°
Sets 03:18:29 0° 144° (SE) 3,218 6.3 -8.0°
